Location: ??
(35.4627°N, 139.3695°E)
Time: 15:51:19
(UTC+00:00)

Cosmos 405 Rocket - Pass Details

Date: 25 November 2020
Orbit: 489 x 553 km, 81.3° (Epoch: 21 January)

Event Time Altitude Azimuth Distance (km) Brightness Sun altitude
Rises 20:43:48 0° 187° (S) 2,548 6.4 -9.3°
Reaches altitude 10° 20:45:53 10° 187° (S) 1,671 5.5 -8.9°
Maximum altitude 20:49:32 88° 97° (E) 496 2.6 -8.2°
Drops below altitude 10° 20:53:15 10° 9° (N) 1,693 5.2 -7.5°
Sets 20:55:23 0° 9° (N) 2,587 6.1 -7.1°
